BAW72W EGLL-EDDF

Flight info

Callsign BAW72W
Flight time 1h 15m
Altitude 35000
Route DET L6 DVR UL9 KONAN UL607 SPI T180 NIVNU T847 IMCOM IMCOM1A
Aircraft B752/M-SDE2E3FGHIJ3J4J7RWXY/LB1

Departure

Time 2026-05-05 12:01
Airport London Heathrow Airport (EGLL)

Arrival

Time 2026-05-05 13:16
Airport Frankfurt Main Airport (EDDF)
Time Latitude Longitude Altitude Speed Heading
2026-05-05 11:25 51.46993 -0.48608 80 ft 0 kts 270°
2026-05-05 11:35 51.46993 -0.48607 79 ft 0 kts 270°
2026-05-05 11:51 51.46993 -0.48592 80 ft 2 kts 270°
2026-05-05 11:52 51.46993 -0.48567 80 ft 2 kts 270°
2026-05-05 11:52 51.46993 -0.48543 80 ft 2 kts 270°
2026-05-05 11:52 51.46993 -0.48519 80 ft 2 kts 270°
2026-05-05 11:52 51.46993 -0.48502 80 ft 0 kts 270°
2026-05-05 11:53 51.46997 -0.48481 80 ft 2 kts 226°
2026-05-05 11:53 51.47008 -0.48470 80 ft 0 kts 186°
2026-05-05 11:53 51.47013 -0.48471 80 ft 1 kts 179°
2026-05-05 11:53 51.47016 -0.48471 80 ft 0 kts 180°
2026-05-05 11:55 51.47015 -0.48471 80 ft 1 kts 180°
2026-05-05 11:56 51.46999 -0.48471 80 ft 3 kts 180°
2026-05-05 11:56 51.46977 -0.48471 80 ft 3 kts 181°
2026-05-05 11:56 51.46956 -0.48471 80 ft 3 kts 181°
2026-05-05 11:56 51.46931 -0.48472 80 ft 4 kts 181°
2026-05-05 11:57 51.46901 -0.48472 80 ft 4 kts 181°
2026-05-05 11:57 51.46870 -0.48472 80 ft 4 kts 179°
2026-05-05 11:57 51.46839 -0.48471 81 ft 4 kts 179°
2026-05-05 11:57 51.46835 -0.48471 81 ft 0 kts 179°
2026-05-05 11:58 51.46822 -0.48470 81 ft 3 kts 179°
2026-05-05 11:58 51.46788 -0.48469 80 ft 7 kts 179°
2026-05-05 11:59 51.46713 -0.48469 80 ft 13 kts 182°
2026-05-05 11:59 51.46614 -0.48469 79 ft 14 kts 179°
2026-05-05 11:59 51.46526 -0.48466 79 ft 8 kts 178°
2026-05-05 11:59 51.46481 -0.48426 80 ft 5 kts 124°
2026-05-05 12:00 51.46478 -0.48404 80 ft 0 kts 89°
2026-05-05 12:00 51.46479 -0.48278 80 ft 40 kts 90°
2026-05-05 12:00 51.46484 -0.47445 82 ft 109 kts 89°
2026-05-05 12:00 51.46488 -0.45889 92 ft 169 kts 88°
2026-05-05 12:01 51.46511 -0.43984 691 ft 179 kts 91°
2026-05-05 12:01 51.46346 -0.42205 1828 ft 161 kts 100°
2026-05-05 12:01 51.45990 -0.40397 2277 ft 181 kts 107°
2026-05-05 12:01 51.45614 -0.38878 2713 ft 192 kts 110°
2026-05-05 12:02 51.45116 -0.36809 3268 ft 207 kts 107°
2026-05-05 12:02 51.44639 -0.34595 3838 ft 221 kts 105°
2026-05-05 12:02 51.44205 -0.32371 4628 ft 223 kts 107°
2026-05-05 12:02 51.43614 -0.30046 5416 ft 228 kts 110°
2026-05-05 12:03 51.43106 -0.27667 5993 ft 238 kts 105°
2026-05-05 12:03 51.42636 -0.25097 5980 ft 238 kts 104°
2026-05-05 12:03 51.42222 -0.22623 5972 ft 227 kts 103°
2026-05-05 12:03 51.41844 -0.20188 5990 ft 228 kts 102°
2026-05-05 12:04 51.41475 -0.17694 5989 ft 230 kts 102°
2026-05-05 12:04 51.41122 -0.15240 5986 ft 229 kts 101°
2026-05-05 12:04 51.40768 -0.12733 5987 ft 229 kts 101°
2026-05-05 12:04 51.40421 -0.10255 5985 ft 229 kts 101°
2026-05-05 12:05 51.40074 -0.07771 5987 ft 229 kts 101°
2026-05-05 12:05 51.39722 -0.05243 6108 ft 238 kts 101°
2026-05-05 12:05 51.39419 -0.02691 7077 ft 231 kts 97°
2026-05-05 12:05 51.39216 -0.00169 7785 ft 237 kts 96°
2026-05-05 12:06 51.39009 0.02450 8556 ft 239 kts 96°
2026-05-05 12:06 51.38797 0.05138 8973 ft 257 kts 96°
2026-05-05 12:06 51.38568 0.08070 9361 ft 275 kts 96°
2026-05-05 12:06 51.38327 0.11171 9829 ft 286 kts 96°
2026-05-05 12:07 51.38089 0.14258 9972 ft 268 kts 96°
2026-05-05 12:07 51.37864 0.17100 9965 ft 249 kts 96°
2026-05-05 12:07 51.37647 0.19821 9989 ft 247 kts 96°
2026-05-05 12:07 51.37398 0.22581 9994 ft 253 kts 97°
2026-05-05 12:08 51.37154 0.25353 9981 ft 251 kts 96°
2026-05-05 12:08 51.36930 0.28080 9983 ft 250 kts 96°
2026-05-05 12:08 51.36699 0.30852 10039 ft 255 kts 96°
2026-05-05 12:08 51.36460 0.33676 10806 ft 253 kts 96°
2026-05-05 12:09 51.36030 0.36362 11632 ft 252 kts 107°
2026-05-05 12:09 51.35506 0.39072 11807 ft 272 kts 105°
2026-05-05 12:09 51.34971 0.41985 11947 ft 270 kts 104°
2026-05-05 12:09 51.34431 0.44824 11966 ft 263 kts 105°
2026-05-05 12:10 51.33895 0.47553 11957 ft 248 kts 105°
2026-05-05 12:10 51.33390 0.50111 11964 ft 246 kts 105°
2026-05-05 12:10 51.32876 0.52774 11987 ft 253 kts 105°
2026-05-05 12:10 51.32349 0.55483 11967 ft 252 kts 105°
2026-05-05 12:11 51.31823 0.58133 11986 ft 251 kts 105°
2026-05-05 12:11 51.31407 0.60866 12253 ft 259 kts 95°
2026-05-05 12:11 51.31201 0.63633 13216 ft 250 kts 96°
2026-05-05 12:11 51.30955 0.66370 13775 ft 256 kts 97°
2026-05-05 12:12 51.30690 0.69190 14463 ft 258 kts 97°
2026-05-05 12:12 51.30418 0.72025 15090 ft 261 kts 98°
2026-05-05 12:12 51.30138 0.74887 15740 ft 263 kts 98°
2026-05-05 12:12 51.29853 0.77777 16322 ft 267 kts 98°
2026-05-05 12:13 51.29562 0.80703 16964 ft 269 kts 99°
2026-05-05 12:13 51.29271 0.83621 17537 ft 272 kts 99°
2026-05-05 12:13 51.28970 0.86621 18117 ft 274 kts 99°
2026-05-05 12:13 51.28672 0.89583 18731 ft 275 kts 99°
2026-05-05 12:14 51.28368 0.92600 19271 ft 278 kts 100°
2026-05-05 12:14 51.28059 0.95657 19842 ft 280 kts 100°
2026-05-05 12:14 51.27824 0.97963 20230 ft 282 kts 100°
2026-05-05 12:15 51.27511 1.01048 20764 ft 284 kts 100°
2026-05-05 12:16 51.27196 1.04129 21237 ft 288 kts 100°
2026-05-05 12:16 51.26872 1.07310 21736 ft 290 kts 101°
2026-05-05 12:16 51.26546 1.10478 22213 ft 293 kts 101°
2026-05-05 12:16 51.26215 1.13702 22739 ft 294 kts 101°
2026-05-05 12:17 51.25884 1.16911 23192 ft 297 kts 101°
2026-05-05 12:17 51.25550 1.20141 23645 ft 299 kts 101°
2026-05-05 12:17 51.25207 1.23442 24112 ft 301 kts 101°
2026-05-05 12:17 51.24862 1.26766 24614 ft 303 kts 101°
2026-05-05 12:18 51.24520 1.30044 25143 ft 304 kts 101°
2026-05-05 12:18 51.24173 1.33364 25636 ft 306 kts 101°
2026-05-05 12:18 51.23821 1.36729 26136 ft 308 kts 101°
2026-05-05 12:18 51.23467 1.40086 26605 ft 310 kts 101°
2026-05-05 12:19 51.23108 1.43492 27056 ft 312 kts 101°
2026-05-05 12:19 51.22747 1.46897 27527 ft 312 kts 101°
2026-05-05 12:19 51.22385 1.50314 27912 ft 316 kts 102°
2026-05-05 12:19 51.22020 1.53748 28351 ft 317 kts 102°
2026-05-05 12:20 51.21294 1.60537 29096 ft 322 kts 102°
2026-05-05 12:20 51.20919 1.64032 29464 ft 324 kts 102°
2026-05-05 12:20 51.20538 1.67570 29853 ft 325 kts 103°
2026-05-05 12:21 51.20153 1.71138 30226 ft 327 kts 103°
2026-05-05 12:21 51.19766 1.74709 30500 ft 331 kts 103°
2026-05-05 12:21 51.19374 1.78324 30885 ft 332 kts 103°
2026-05-05 12:21 51.18983 1.81916 31164 ft 335 kts 103°
2026-05-05 12:22 51.18579 1.85608 31447 ft 337 kts 103°
2026-05-05 12:22 51.18178 1.89266 31753 ft 339 kts 103°
2026-05-05 12:22 51.17770 1.92980 31985 ft 342 kts 103°
2026-05-05 12:22 51.17361 1.96686 32323 ft 342 kts 103°
2026-05-05 12:23 51.16949 2.00416 32653 ft 342 kts 103°
2026-05-05 12:23 51.16537 2.04128 32967 ft 342 kts 103°
2026-05-05 12:23 51.16124 2.07848 33269 ft 342 kts 104°
2026-05-05 12:23 51.15712 2.11538 33558 ft 342 kts 104°
2026-05-05 12:24 51.15295 2.15260 33844 ft 342 kts 104°
2026-05-05 12:24 51.14874 2.19017 34154 ft 341 kts 104°
2026-05-05 12:24 51.14459 2.22694 34370 ft 342 kts 104°
2026-05-05 12:24 51.14039 2.26419 34633 ft 342 kts 104°
2026-05-05 12:25 51.13616 2.30144 34866 ft 342 kts 104°
2026-05-05 12:25 51.13192 2.33869 34933 ft 345 kts 104°
2026-05-05 12:25 51.12340 2.41348 34919 ft 340 kts 105°
2026-05-05 12:26 51.11495 2.48704 34927 ft 339 kts 105°
2026-05-05 12:26 51.10638 2.56119 34916 ft 341 kts 105°
2026-05-05 12:27 51.09815 2.63530 34923 ft 344 kts 105°
2026-05-05 12:27 51.08609 2.70903 34925 ft 350 kts 111°
2026-05-05 12:28 51.07206 2.78455 34928 ft 360 kts 111°
2026-05-05 12:28 51.05793 2.86174 34921 ft 370 kts 111°
2026-05-05 12:29 51.04351 2.94062 34904 ft 375 kts 111°
2026-05-05 12:29 51.02900 3.02045 34900 ft 374 kts 110°
2026-05-05 12:30 51.01526 3.09916 34884 ft 372 kts 110°
2026-05-05 12:30 51.00090 3.17831 34884 ft 372 kts 111°
2026-05-05 12:31 50.98641 3.25682 34883 ft 372 kts 111°
2026-05-05 12:31 50.97188 3.33496 34880 ft 372 kts 111°
2026-05-05 12:32 50.95715 3.41374 34883 ft 371 kts 111°
2026-05-05 12:32 50.94245 3.49200 34875 ft 372 kts 111°
2026-05-05 12:33 50.92765 3.57044 34874 ft 372 kts 111°
2026-05-05 12:33 50.91283 3.64852 34867 ft 372 kts 111°
2026-05-05 12:34 50.89780 3.72665 34894 ft 377 kts 112°
2026-05-05 12:34 50.88220 3.80739 34890 ft 391 kts 112°
2026-05-05 12:35 50.86600 3.89092 34888 ft 405 kts 112°
2026-05-05 12:35 50.85004 3.97776 34884 ft 419 kts 110°
2026-05-05 12:36 50.83369 4.06640 34883 ft 432 kts 111°
2026-05-05 12:36 50.81599 4.15811 34888 ft 444 kts 111°
2026-05-05 12:37 50.79750 4.25234 34887 ft 456 kts 111°
2026-05-05 12:37 50.77846 4.34848 34885 ft 466 kts 111°
2026-05-05 12:38 50.75889 4.44674 34886 ft 471 kts 111°
2026-05-05 12:38 50.74032 4.54499 34883 ft 471 kts 110°
2026-05-05 12:39 50.72166 4.64327 34881 ft 469 kts 110°
2026-05-05 12:39 50.70292 4.74180 34876 ft 469 kts 111°
2026-05-05 12:40 50.68391 4.84011 34877 ft 470 kts 111°
2026-05-05 12:40 50.66475 4.93769 34877 ft 469 kts 112°
2026-05-05 12:41 50.64478 5.03517 34868 ft 462 kts 112°
2026-05-05 12:41 50.62546 5.12913 34879 ft 448 kts 112°
2026-05-05 12:42 50.60606 5.22281 34873 ft 452 kts 112°
2026-05-05 12:42 50.58667 5.31609 34864 ft 451 kts 112°
2026-05-05 12:43 50.56710 5.40979 34870 ft 453 kts 112°
2026-05-05 12:43 50.54749 5.50330 34865 ft 451 kts 112°
2026-05-05 12:44 50.52786 5.59642 34862 ft 455 kts 112°
2026-05-05 12:44 50.51047 5.68493 34859 ft 466 kts 111°
2026-05-05 12:45 50.49022 5.79368 34851 ft 468 kts 111°
2026-05-05 12:45 50.47231 5.88928 34852 ft 458 kts 111°
2026-05-05 12:46 50.45409 5.98571 34846 ft 466 kts 111°
2026-05-05 12:46 50.43562 6.08306 34841 ft 464 kts 111°
2026-05-05 12:47 50.42668 6.13025 34670 ft 447 kts 111°
2026-05-05 12:47 50.41782 6.17654 33819 ft 449 kts 111°
2026-05-05 12:47 50.40889 6.22299 33012 ft 455 kts 110°
2026-05-05 12:47 50.39967 6.27091 32180 ft 460 kts 110°
2026-05-05 12:48 50.39057 6.31815 31423 ft 461 kts 110°
2026-05-05 12:48 50.38138 6.36579 30723 ft 458 kts 110°
2026-05-05 12:48 50.37289 6.41347 30388 ft 450 kts 104°
2026-05-05 12:48 50.36852 6.46203 30053 ft 451 kts 98°
2026-05-05 12:49 50.36552 6.50985 30016 ft 434 kts 99°
2026-05-05 12:49 50.36246 6.55563 29964 ft 416 kts 99°
2026-05-05 12:49 50.35951 6.60045 28875 ft 425 kts 99°
2026-05-05 12:49 50.35646 6.64670 27543 ft 435 kts 98°
2026-05-05 12:50 50.35064 6.73680 26452 ft 423 kts 99°
2026-05-05 12:50 50.34768 6.78317 25908 ft 436 kts 98°
2026-05-05 12:50 50.34455 6.82913 25343 ft 434 kts 102°
2026-05-05 12:51 50.33758 6.87468 24787 ft 423 kts 112°
2026-05-05 12:51 50.32656 6.91652 24262 ft 415 kts 116°
2026-05-05 12:51 50.31487 6.95721 23765 ft 415 kts 117°
2026-05-05 12:51 50.30323 6.99721 23283 ft 414 kts 117°
2026-05-05 12:52 50.29120 7.03795 22710 ft 411 kts 118°
2026-05-05 12:52 50.27781 7.07665 22196 ft 403 kts 121°
2026-05-05 12:52 50.26455 7.11496 21694 ft 400 kts 119°
2026-05-05 12:52 50.25204 7.15323 21215 ft 399 kts 118°
2026-05-05 12:53 50.23989 7.19159 20713 ft 397 kts 118°
2026-05-05 12:53 50.22781 7.23051 20225 ft 394 kts 117°
2026-05-05 12:53 50.21612 7.26863 19744 ft 392 kts 117°
2026-05-05 12:53 50.20454 7.30661 19271 ft 388 kts 117°
2026-05-05 12:54 50.18452 7.38375 18258 ft 382 kts 112°
2026-05-05 12:54 50.17538 7.42214 17792 ft 378 kts 112°
2026-05-05 12:54 50.16637 7.45996 17347 ft 377 kts 111°
2026-05-05 12:55 50.15727 7.49803 16885 ft 375 kts 111°
2026-05-05 12:55 50.14819 7.53596 16429 ft 374 kts 112°
2026-05-05 12:55 50.13938 7.57268 15971 ft 371 kts 111°
2026-05-05 12:55 50.13037 7.61020 15488 ft 369 kts 111°
2026-05-05 12:56 50.12139 7.64745 15040 ft 366 kts 111°
2026-05-05 12:56 50.11163 7.68368 14556 ft 364 kts 121°
2026-05-05 12:56 50.09796 7.71619 14131 ft 361 kts 126°
2026-05-05 12:56 50.08867 7.73741 13814 ft 360 kts 125°
2026-05-05 12:57 50.06999 7.77990 13222 ft 357 kts 126°
2026-05-05 12:57 50.05611 7.81130 12792 ft 354 kts 126°
2026-05-05 12:57 50.04221 7.84260 12336 ft 351 kts 126°
2026-05-05 12:57 50.02848 7.87344 11886 ft 350 kts 126°
2026-05-05 12:58 50.01556 7.90360 11496 ft 348 kts 120°
2026-05-05 12:58 50.00705 7.93808 11064 ft 349 kts 103°
2026-05-05 12:58 50.00548 7.97480 10844 ft 345 kts 85°
2026-05-05 12:58 50.01083 8.01060 10872 ft 350 kts 72°
2026-05-05 12:59 50.01879 8.04592 10829 ft 353 kts 72°
2026-05-05 12:59 50.02695 8.08124 10832 ft 352 kts 71°
2026-05-05 12:59 50.03543 8.11711 10851 ft 353 kts 71°
2026-05-05 13:00 50.05235 8.18756 10823 ft 352 kts 71°
2026-05-05 13:00 50.06086 8.22280 10829 ft 353 kts 71°
2026-05-05 13:01 50.08637 8.32839 10846 ft 352 kts 71°
2026-05-05 13:01 50.09417 8.36073 10848 ft 353 kts 71°
2026-05-05 13:01 50.11156 8.43313 10290 ft 356 kts 70°
2026-05-05 13:02 50.12023 8.46924 9976 ft 341 kts 70°
2026-05-05 13:02 50.12808 8.50198 9926 ft 322 kts 71°
2026-05-05 13:02 50.13564 8.53362 9845 ft 303 kts 71°
2026-05-05 13:02 50.14254 8.56244 9752 ft 273 kts 71°
2026-05-05 13:03 50.14893 8.58933 9774 ft 278 kts 71°
2026-05-05 13:03 50.15572 8.61787 9763 ft 283 kts 71°
2026-05-05 13:03 50.16248 8.64639 9761 ft 281 kts 71°
2026-05-05 13:03 50.16919 8.67461 9799 ft 281 kts 72°
2026-05-05 13:04 50.17585 8.70268 9782 ft 281 kts 72°
2026-05-05 13:04 50.18254 8.73085 9747 ft 279 kts 72°
2026-05-05 13:04 50.18929 8.75933 9748 ft 281 kts 72°
2026-05-05 13:04 50.19593 8.78745 9692 ft 278 kts 72°
2026-05-05 13:05 50.20257 8.81558 9684 ft 275 kts 72°
2026-05-05 13:05 50.20921 8.84382 9688 ft 281 kts 72°
2026-05-05 13:05 50.21601 8.87275 9682 ft 282 kts 72°
2026-05-05 13:05 50.22265 8.90099 9675 ft 275 kts 72°
2026-05-05 13:06 50.22897 8.92791 9646 ft 258 kts 72°
2026-05-05 13:06 50.23413 8.95398 9673 ft 251 kts 87°
2026-05-05 13:06 50.23181 8.98059 9736 ft 246 kts 117°
2026-05-05 13:06 50.22188 9.00075 9485 ft 236 kts 147°
2026-05-05 13:07 50.20720 9.00949 9031 ft 227 kts 179°
2026-05-05 13:07 50.19236 9.00551 8650 ft 219 kts 197°
2026-05-05 13:07 50.17806 8.99839 8223 ft 211 kts 196°
2026-05-05 13:07 50.16433 8.99181 7722 ft 208 kts 196°
2026-05-05 13:08 50.15044 8.98929 7233 ft 203 kts 177°
2026-05-05 13:08 50.13659 8.98852 6744 ft 200 kts 198°
2026-05-05 13:08 50.12555 8.97629 6278 ft 196 kts 237°
2026-05-05 13:08 50.12194 8.95672 5857 ft 192 kts 273°
2026-05-05 13:09 50.12367 8.93657 5545 ft 182 kts 279°
2026-05-05 13:09 50.12579 8.91734 5182 ft 180 kts 278°
2026-05-05 13:09 50.12781 8.89870 4842 ft 166 kts 279°
2026-05-05 13:09 50.12779 8.88256 4729 ft 135 kts 251°
2026-05-05 13:10 50.12477 8.86962 4830 ft 137 kts 251°
2026-05-05 13:10 50.12126 8.85353 4871 ft 170 kts 250°
2026-05-05 13:10 50.11735 8.83602 4613 ft 167 kts 251°
2026-05-05 13:10 50.11373 8.82005 4325 ft 151 kts 250°
2026-05-05 13:11 50.11039 8.80556 4052 ft 135 kts 251°
2026-05-05 13:11 50.10729 8.79219 3841 ft 131 kts 251°
2026-05-05 13:11 50.10421 8.77887 3695 ft 137 kts 251°
2026-05-05 13:11 50.10095 8.76493 3508 ft 138 kts 251°
2026-05-05 13:12 50.09765 8.75094 3300 ft 136 kts 251°
2026-05-05 13:12 50.09446 8.73739 3101 ft 134 kts 251°
2026-05-05 13:12 50.09129 8.72399 2916 ft 133 kts 251°
2026-05-05 13:12 50.08812 8.71062 2736 ft 133 kts 251°
2026-05-05 13:13 50.08495 8.69729 2561 ft 132 kts 251°
2026-05-05 13:13 50.08180 8.68404 2385 ft 131 kts 251°
2026-05-05 13:13 50.07864 8.67076 2210 ft 130 kts 250°
2026-05-05 13:13 50.07550 8.65764 2034 ft 130 kts 251°
2026-05-05 13:14 50.07236 8.64439 1859 ft 130 kts 249°
2026-05-05 13:14 50.06926 8.63140 1688 ft 129 kts 249°
2026-05-05 13:14 50.06620 8.61826 1520 ft 128 kts 250°
2026-05-05 13:14 50.06312 8.60538 1329 ft 131 kts 248°
2026-05-05 13:15 50.05972 8.59249 1178 ft 127 kts 249°
2026-05-05 13:15 50.05651 8.57935 1034 ft 129 kts 251°
2026-05-05 13:15 50.05355 8.56628 918 ft 129 kts 249°
2026-05-05 13:15 50.05032 8.55315 731 ft 132 kts 250°
2026-05-05 13:16 50.04723 8.53980 499 ft 129 kts 250°
2026-05-05 13:16 50.04417 8.52710 371 ft 124 kts 250°
2026-05-05 13:16 50.04200 8.51769 363 ft 60 kts 246°
2026-05-05 13:16 50.04067 8.51484 365 ft 20 kts 225°
2026-05-05 13:17 50.04005 8.51403 365 ft 6 kts 219°
2026-05-05 13:17 50.03971 8.51369 365 ft 4 kts 200°
2026-05-05 13:17 50.03938 8.51358 364 ft 3 kts 174°
2026-05-05 13:17 50.03918 8.51378 363 ft 3 kts 133°
2026-05-05 13:18 50.03906 8.51429 363 ft 9 kts 89°
2026-05-05 13:18 50.03927 8.51533 363 ft 10 kts 71°
2026-05-05 13:18 50.03949 8.51627 363 ft 10 kts 69°
2026-05-05 13:18 50.03983 8.51763 362 ft 13 kts 69°
2026-05-05 13:19 50.04015 8.51894 361 ft 12 kts 71°
2026-05-05 13:19 50.04042 8.52017 360 ft 11 kts 70°
2026-05-05 13:19 50.04072 8.52140 360 ft 16 kts 70°
2026-05-05 13:19 50.04125 8.52360 362 ft 27 kts 70°
2026-05-05 13:20 50.04226 8.52792 362 ft 20 kts 70°
2026-05-05 13:20 50.04279 8.53011 358 ft 31 kts 70°
2026-05-05 13:20 50.04378 8.53418 356 ft 40 kts 69°
2026-05-05 13:21 50.04418 8.53795 357 ft 33 kts 85°
2026-05-05 13:21 50.04430 8.54131 359 ft 29 kts 83°
2026-05-05 13:21 50.04455 8.54434 358 ft 27 kts 90°
2026-05-05 13:21 50.04388 8.54681 357 ft 24 kts 133°
2026-05-05 13:22 50.04249 8.54809 356 ft 22 kts 162°
2026-05-05 13:22 50.04114 8.54882 355 ft 19 kts 155°
2026-05-05 13:22 50.04017 8.54960 352 ft 7 kts 115°
2026-05-05 13:22 50.04023 8.55029 354 ft 6 kts 69°
2026-05-05 13:23 50.04071 8.55236 358 ft 45 kts 71°
2026-05-05 13:23 50.04151 8.55572 360 ft 22 kts 69°
2026-05-05 13:23 50.04199 8.55773 360 ft 17 kts 71°
2026-05-05 13:23 50.04236 8.55935 361 ft 13 kts 69°
2026-05-05 13:24 50.04277 8.55967 363 ft 4 kts 339°
2026-05-05 13:24 50.04333 8.55934 365 ft 17 kts 340°
2026-05-05 13:24 50.04411 8.55948 367 ft 9 kts 56°
2026-05-05 13:24 50.04431 8.56024 367 ft 6 kts 69°
2026-05-05 13:25 50.04446 8.56081 367 ft 5 kts 69°
2026-05-05 13:25 50.04456 8.56130 368 ft 4 kts 71°
2026-05-05 13:25 50.04465 8.56172 368 ft 1 kts 85°
2026-05-05 13:25 50.04462 8.56181 368 ft 0 kts 124°
2026-05-05 13:26 50.04456 8.56188 368 ft 3 kts 148°
2026-05-05 13:26 50.04425 8.56209 367 ft 7 kts 160°
2026-05-05 13:26 50.04409 8.56218 367 ft 0 kts 161°